CW2474 Weather Reports


Display with metric or nautical units.
time (UTC)temp
F
wind
direction
speed
MPH
gust
MPH
rain 1hr
in
rain 24hr
in
rain mn
in
humidity
%
barometer
mb
20260906215129 87 323 2.0 4.0 0.00 0.00 0.00 42 1015.2
20260906214105 87 294 2.0 5.0 0.00 0.00 0.00 38 1015.2
20260906213058 86 333 2.0 4.0 0.00 0.00 0.00 37 1015.3
20260906212050 85 11 1.0 3.0 0.00 0.00 0.00 40 1015.4
20260906211042 82 17 1.0 2.0 0.00 0.00 0.00 42 1015.8
20260906210015 82 17 0.0 2.0 0.00 0.00 0.00 45 1016.0
20260906205013 83 19 0.0 2.0 0.00 0.00 0.00 40 1016.1
20260906204027 82 19 0.0 2.0 0.00 0.00 0.00 43 1016.2
20260906203102 83 107 0.0 2.0 0.00 0.00 0.00 40 1016.2
20260906202015 85 121 0.0 4.0 0.00 0.00 0.00 38 1016.4
20260906201033 84 69 2.0 7.0 0.00 0.00 0.00 37 1016.4
20260906200046 87 5 1.0 8.0 0.00 0.00 0.00 39 1016.6
20260906195120 86 323 2.0 4.0 0.00 0.00 0.00 42 1016.5
20260906195016 86 323 2.0 4.0 0.00 0.00 0.00 42 1016.5
20260906194051 85 329 2.0 5.0 0.00 0.00 0.00 40 1016.6
20260906193124 85 22 1.0 10.0 0.00 0.00 0.00 43 1016.7
20260906192014 84 344 3.0 8.0 0.00 0.00 0.00 42 1016.9
20260906191110 85 25 1.0 4.0 0.00 0.00 0.00 46 1017.1
20260906191028 85 25 1.0 4.0 0.00 0.00 0.00 46 1017.1
20260906185018 83 87 2.0 5.0 0.00 0.00 0.00 46 1017.2
20260906184113 83 338 1.0 4.0 0.00 0.00 0.00 49 1017.6
20260906184030 83 338 1.0 4.0 0.00 0.00 0.00 49 1017.6
20260906183125 82 46 1.0 3.0 0.00 0.00 0.00 54 1017.8
20260906182015 80 292 1.0 4.0 0.00 0.00 0.00 53 1017.9
20260906181030 80 304 1.0 4.0 0.00 0.00 0.00 51 1018.0
20260906180028 80 5 1.0 5.0 0.00 0.00 0.00 50 1018.2
20260906175042 80 55 1.0 5.0 0.00 0.00 0.00 52 1018.4
20260906174035 79 319 2.0 4.0 0.00 0.00 0.00 57 1018.6
20260906173108 79 19 1.0 4.0 0.00 0.00 0.00 59 1018.9
20260906172101 78 209 1.0 3.0 0.00 0.00 0.00 57 1019.0
20260906172018 78 209 1.0 3.0 0.00 0.00 0.00 57 1019.0
20260906171013 76 103 1.0 2.0 0.00 0.00 0.00 59 1019.0
20260906170108 75 52 1.0 3.0 0.00 0.00 0.00 63 1019.2
20260906165024 74 200 2.0 4.0 0.00 0.00 0.00 61 1019.4
20260906164039 73 315 1.0 3.0 0.00 0.00 0.00 64 1019.6
20260906163012 73 279 1.0 3.0 0.00 0.00 0.00 64 1019.6
20260906162046 72 13 0.0 3.0 0.00 0.00 0.00 67 1019.6
20260906161125 73 15 1.0 3.0 0.00 0.00 0.00 66 1019.5
20260906161022 73 15 1.0 3.0 0.00 0.00 0.00 66 1019.5
20260906160015 72 13 0.0 2.0 0.00 0.00 0.00 68 1019.5
20260906155028 72 13 1.0 2.0 0.00 0.00 0.00 70 1019.5
20260906154041 70 90 1.0 2.0 0.00 0.00 0.00 69 1019.5
20260906153014 70 68 0.0 3.0 0.00 0.00 0.00 73 1019.6
20260906152011 70 5 0.0 2.0 0.00 0.00 0.00 72 1019.7
20260906151044 69 329 0.0 3.0 0.00 0.00 0.00 73 1019.8
20260906150119 68 342 0.0 2.0 0.00 0.00 0.00 76 1019.8
20260906145051 66 342 1.0 2.0 0.00 0.00 0.00 79 1019.8
20260906144043 66 342 1.0 2.0 0.00 0.00 0.00 78 1019.9
20260906143037 67 329 0.0 3.0 0.00 0.00 0.00 76 1019.9
20260906142055 68 13 1.0 3.0 0.00 0.00 0.00 76 1019.7
20260906142013 68 13 1.0 3.0 0.00 0.00 0.00 76 1019.7
20260906141046 67 15 0.0 3.0 0.00 0.00 0.00 77 1019.8
20260906140039 66 333 1.0 3.0 0.00 0.00 0.00 76 1019.6
20260906135113 65 342 1.0 3.0 0.00 0.00 0.00 78 1019.5
20260906134045 63 290 0.0 2.0 0.00 0.00 0.00 79 1019.6
20260906133058 62 287 0.0 0.0 0.00 0.00 0.00 78 1019.6
20260906132131 61 287 0.0 1.0 0.00 0.00 0.00 79 1019.5
20260906132049 61 287 0.0 1.0 0.00 0.00 0.00 79 1019.5
20260906131042 61 287 0.0 2.0 0.00 0.00 0.00 78 1019.5
20260906130019 61 287 1.0 2.0 0.00 0.00 0.00 79 1019.4
20260906125053 60 287 1.0 1.0 0.00 0.00 0.00 78 1019.4
20260906125011 60 287 1.0 1.0 0.00 0.00 0.00 78 1019.4
20260906124105 60 287 0.0 0.0 0.00 0.00 0.00 79 1019.1
20260906123037 62 287 0.0 0.0 0.00 0.00 0.00 81 1019.3
20260906122050 62 287 0.0 0.0 0.00 0.00 0.00 80 1019.1
20260906121103 62 287 0.0 2.0 0.00 0.00 0.00 80 1019.0
20260906120018 62 287 0.0 0.0 0.00 0.00 0.00 80 1018.9
20260906115033 63 287 0.0 2.0 0.00 0.00 0.00 77 1018.9
20260906114025 63 287 0.0 2.0 0.00 0.00 0.00 75 1018.9
20260906113100 62 287 0.0 1.0 0.00 0.00 0.00 75 1019.0
20260906113018 62 287 0.0 1.0 0.00 0.00 0.00 75 1019.0
20260906112011 61 287 0.0 2.0 0.00 0.00 0.00 73 1018.8
20260906111029 62 287 0.0 2.0 0.00 0.00 0.00 72 1018.8
20260906110023 62 287 0.0 0.0 0.00 0.00 0.00 72 1018.8
20260906105118 62 287 0.0 1.0 0.00 0.00 0.00 71 1018.8
20260906105036 62 287 0.0 1.0 0.00 0.00 0.00 71 1018.8
20260906104109 62 287 0.0 2.0 0.00 0.00 0.00 71 1018.9
20260906103121 62 287 0.0 2.0 0.00 0.00 0.00 71 1018.9
20260906103018 62 287 0.0 2.0 0.00 0.00 0.00 71 1018.9
20260906102133 62 287 1.0 2.0 0.00 0.00 0.00 70 1018.8
20260906102050 62 287 1.0 2.0 0.00 0.00 0.00 70 1018.8
20260906101043 63 287 0.0 1.0 0.00 0.00 0.00 72 1018.8
20260906100117 64 287 0.0 2.0 0.00 0.00 0.00 70 1018.7
20260906100014 64 287 0.0 2.0 0.00 0.00 0.00 70 1018.7
20260906095032 64 287 0.0 2.0 0.00 0.00 0.00 69 1018.6
20260906094126 65 285 0.0 0.0 0.00 0.00 0.00 68 1018.8
20260906094044 65 285 0.0 0.0 0.00 0.00 0.00 68 1018.8
20260906093056 64 285 0.0 2.0 0.00 0.00 0.00 67 1018.8
20260906092109 65 355 0.0 2.0 0.00 0.00 0.00 67 1018.6
20260906092027 65 355 0.0 2.0 0.00 0.00 0.00 67 1018.6
20260906091041 65 355 0.0 2.0 0.00 0.00 0.00 66 1018.3
20260906090035 66 331 1.0 3.0 0.00 0.00 0.00 64 1018.1
20260906085109 66 9 1.0 2.0 0.00 0.00 0.00 62 1018.0
20260906084046 67 9 1.0 2.0 0.00 0.00 0.00 60 1018.0
20260906083020 67 12 1.0 3.0 0.00 0.00 0.00 59 1017.9
20260906082054 68 11 1.0 3.0 0.00 0.00 0.00 56 1018.1
20260906081128 68 12 1.0 2.0 0.00 0.00 0.00 54 1018.3
20260906081045 68 12 1.0 2.0 0.00 0.00 0.00 54 1018.3
20260906080100 68 347 0.0 2.0 0.00 0.00 0.00 53 1018.1
20260906080017 68 347 0.0 2.0 0.00 0.00 0.00 53 1018.1
20260906075133 68 360 1.0 2.0 0.00 0.00 0.00 54 1018.1
20260906075029 68 360 1.0 2.0 0.00 0.00 0.00 54 1018.1
20260906074104 69 80 0.0 2.0 0.00 0.00 0.00 51 1018.0
20260906073020 70 80 0.0 2.0 0.00 0.00 0.00 48 1018.1
20260906072014 70 80 0.0 2.0 0.00 0.00 0.00 48 1018.2
20260906071048 70 80 0.0 2.0 0.00 0.00 0.00 51 1018.1
20260906070042 71 80 0.0 2.0 0.00 0.00 0.00 48 1018.1
20260906065055 72 90 1.0 2.0 0.00 0.00 0.00 45 1018.2
20260906064032 71 15 2.0 2.0 0.00 0.00 0.00 46 1018.1
20260906063107 71 15 0.0 2.0 0.00 0.00 0.00 46 1018.2
20260906062120 71 15 0.0 2.0 0.00 0.00 0.00 46 1018.3
20260906062038 71 15 0.0 2.0 0.00 0.00 0.00 46 1018.3
20260906061030 71 15 0.0 2.0 0.00 0.00 0.00 46 1018.0
20260906060024 72 15 1.0 2.0 0.00 0.00 0.00 44 1017.9
20260906055120 73 119 1.0 3.0 0.00 0.00 0.00 44 1018.3
20260906055016 73 119 1.0 3.0 0.00 0.00 0.00 44 1018.3
20260906054111 74 151 3.0 3.0 0.00 0.00 0.00 40 1018.5
20260906054029 74 151 3.0 3.0 0.00 0.00 0.00 40 1018.5
20260906053027 74 144 4.0 7.0 0.00 0.00 0.00 41 1018.4
20260906052102 74 142 4.0 5.0 0.00 0.00 0.00 40 1018.5
20260906051119 76 90 3.0 6.0 0.00 0.00 0.00 38 1018.3
20260906051015 76 90 3.0 6.0 0.00 0.00 0.00 38 1018.3
20260906050032 76 80 0.0 2.0 0.00 0.00 0.00 39 1017.9
20260906045108 76 82 2.0 6.0 0.00 0.00 0.00 39 1017.9
20260906044104 75 76 2.0 6.0 0.00 0.00 0.00 40 1018.0
20260906043042 73 218 0.0 6.0 0.00 0.00 0.00 43 1018.1
20260906042037 73 228 5.0 9.0 0.00 0.00 0.00 44 1018.1
20260906041112 75 19 1.0 3.0 0.00 0.00 0.00 40 1017.6
20260906040106 77 82 2.0 3.0 0.00 0.00 0.00 38 1017.5
20260906035039 77 61 0.0 9.0 0.00 0.00 0.00 38 1017.1
20260906034036 77 85 1.0 2.0 0.00 0.00 0.00 38 1017.2
20260906033054 77 85 0.0 3.0 0.00 0.00 0.00 37 1017.1
20260906033012 77 85 0.0 3.0 0.00 0.00 0.00 37 1017.1
20260906032048 78 63 2.0 4.0 0.00 0.00 0.00 36 1017.1
20260906031104 78 82 2.0 4.0 0.00 0.00 0.00 36 1017.0
20260906030019 77 327 1.0 2.0 0.00 0.00 0.00 38 1016.8
20260906025116 77 327 1.0 2.0 0.00 0.00 0.00 38 1016.6
20260906025034 77 327 1.0 2.0 0.00 0.00 0.00 38 1016.6
20260906024110 79 327 0.0 2.0 0.00 0.00 0.00 36 1016.5
20260906023125 80 327 0.0 2.0 0.00 0.00 0.00 34 1016.3
20260906023022 80 327 0.0 2.0 0.00 0.00 0.00 34 1016.3
20260906022042 80 325 1.0 4.0 0.00 0.00 0.00 34 1016.2
20260906021058 79 306 1.0 5.0 0.00 0.00 0.00 35 1016.3
20260906021016 79 306 1.0 5.0 0.00 0.00 0.00 35 1016.3
20260906020031 80 270 1.0 3.0 0.00 0.00 0.00 33 1016.4
20260906015025 80 294 0.0 2.0 0.00 0.00 0.00 34 1016.2
20260906014101 80 294 2.0 8.0 0.00 0.00 0.00 34 1016.1
20260906013040 81 306 2.0 6.0 0.00 0.00 0.00 33 1015.9
20260906012034 81 331 3.0 8.0 0.00 0.00 0.00 33 1016.0
20260906011130 82 261 2.0 9.0 0.00 0.00 0.00 33 1016.0
20260906010023 82 323 2.0 10.0 0.00 0.00 0.00 32 1016.0
20260906005040 83 284 4.0 8.0 0.00 0.00 0.00 31 1016.0
20260906004115 84 265 3.0 9.0 0.00 0.00 0.00 31 1016.1
20260906003047 84 304 2.0 7.0 0.00 0.00 0.00 30 1016.2
20260906002045 85 317 3.0 10.0 0.00 0.00 0.00 30 1016.0
20260906001102 86 324 3.0 8.0 0.00 0.00 0.00 31 1016.0
20260906000036 86 319 4.0 13.0 0.00 0.00 0.00 29 1016.0
20260905235011 85 325 3.0 10.0 0.00 0.00 0.00 32 1016.0
20260905234127 85 13 1.0 3.0 0.00 0.00 0.00 33 1015.9
20260905233040 86 13 1.0 2.0 0.00 0.00 0.00 33 1015.9
20260905232039 88 13 0.0 2.0 0.00 0.00 0.00 28 1015.8
20260905231014 88 13 0.0 2.0 0.00 0.00 0.00 29 1015.7
20260905230110 88 13 1.0 2.0 0.00 0.00 0.00 29 1015.5
20260905225105 88 13 0.0 3.0 0.00 0.00 0.00 27 1015.4
20260905225022 88 13 0.0 3.0 0.00 0.00 0.00 27 1015.4
20260905224058 90 11 2.0 4.0 0.00 0.00 0.00 24 1015.5
20260905224016 90 11 2.0 4.0 0.00 0.00 0.00 24 1015.5
20260905223033 93 350 1.0 9.0 0.00 0.00 0.00 25 1015.5
20260905222012 91 94 4.0 10.0 0.00 0.00 0.00 23 1015.4
20260905221028 91 5 1.0 3.0 0.00 0.00 0.00 26 1015.5
20260905220045 90 9 2.0 4.0 0.00 0.00 0.00 26 1015.6